This demonstration page uses our WeatherBlox Daily Observations layout. Learn more.

41.55636, -103.73856

Hourly Observations for January 11, 2018

Temp ( °F °C ) Dew Point ( °F °C ) Humidity (%) Winds ( mph kmh ) Pressure ( in mb ) Visibility ( mi km ) Precip ( " mm )
12:53 am 00:53 Clear 22 -5.6 9 -12.8 57 57 NW 16 26 29.94 1014 10 16.09344 0 0
1:53 am 01:53 Clear 23 -5 8 -13.3 53 53 NW 12 19 29.97 1015 10 16.09344 0 0
2:53 am 02:53 Clear 21 -6.1 8 -13.3 57 57 WNW 15 24 30.03 1017 10 16.09344 0 0
3:53 am 03:53 Clear 14 -10 7 -13.9 73 73 WNW 9 15 30.09 1019 10 16.09344 0 0
4:53 am 04:53 Mostly Clear 14 -10 6 -14.4 71 71 WNW 7 11 30.15 1021 10 16.09344 0 0
5:53 am 05:53 Cloudy 16 -8.9 9 -12.8 74 74 WNW 13 20 30.15 1021 10 16.09344 0 0
6:53 am 06:53 Cloudy 17 -8.3 10 -12.2 74 74 W 13 20 30.18 1022 10 16.09344 0 0
7:53 am 07:53 Partly Cloudy 18 -7.8 9 -12.8 68 68 W 13 20 30.21 1023 10 16.09344 0 0
8:53 am 08:53 Cloudy 20 -6.7 11 -11.7 68 68 WNW 12 19 30.24 1024 10 16.09344 0 0
9:53 am 09:53 Sunny 25 -3.9 12 -11.1 58 58 WNW 12 19 30.27 1025 10 16.09344 0 0
10:53 am 10:53 Sunny 28 -2.2 14 -10 56 56 WNW 12 19 30.27 1025 10 16.09344 0 0
11:53 am 11:53 Sunny 37 2.8 15 -9.4 41 41 WNW 3 6 30.21 1023 10 16.09344 0 0
12:53 pm 12:53 Sunny 39 3.9 16 -8.9 39 39 NW 5 7 30.18 1022 10 16.09344 0 0
1:53 pm 13:53 Sunny 42 5.6 18 -7.8 38 38 Calm 30.15 1021 10 16.09344 0 0
2:53 pm 14:53 Sunny 49 9.4 18 -7.8 29 29 SE 10 17 30.15 1021 10 16.09344 0 0
3:53 pm 15:53 Sunny 42 5.6 17 -8.3 36 36 ESE 10 17 30.18 1022 10 16.09344 0 0
4:53 pm 16:53 Clear 36 2.2 16 -8.9 44 44 ESE 12 19 30.21 1023 10 16.09344 0 0
5:53 pm 17:53 Clear 30 -1.1 13 -10.6 49 49 E 12 19 30.21 1023 10 16.09344 0 0
6:53 pm 18:53 Clear 31 -0.6 12 -11.1 45 45 ESE 12 19 30.18 1022 10 16.09344 0 0
7:53 pm 19:53 Clear 28 -2.2 11 -11.7 49 49 ESE 14 22 30.21 1023 10 16.09344 0 0
8:53 pm 20:53 Mostly Clear 25 -3.9 9 -12.8 50 50 ESE 18 30 30.18 1022 10 16.09344 0 0
9:53 pm 21:53 Clear 26 -3.3 10 -12.2 51 51 ESE 17 28 30.15 1021 10 16.09344 0 0
10:53 pm 22:53 Mostly Clear 25 -3.9 11 -11.7 55 55 ESE 17 28 30.12 1020 10 16.09344 0 0
11:53 pm 23:53 Cloudy 25 -3.9 12 -11.1 58 58 ESE 22 35 30.09 1019 10 16.09344 0 0

Powered by AerisWeather